Flag for Germany Weather past 2 weeks in Gladbeck, North Rhine-Westphalia, Germany

Now
45 °F

Sprinkles. Overcast.


Feels Like: 41 °F
Forecast: 46 / 55 °F
Wind: 7 mph from West

Location: Duesseldorf

Current Time: Oct 22, 2014 at 2:32:01 AM

Latest Report: Oct 22, 2014 at 2:00 AM


Visibility: 19 mi

Pressure: 29.86 "Hg

Humidity: 89%

Dew point: 42 °F

Location of GladbeckLocation

Historic Weather in Gladbeck — Graph

°F

Gladbeck temperature yesterday

Maximum temperature yesterday: 56 °F (at 4:00 PM)
Minimum temperature yesterday: 44 °F (at 11:00 PM)
Average temperature yesterday: 52 °F

Past Weeks' High & Low Weather Summary

 TemperatureHumidityPressure
High74 °F (Oct 19, 2:00 PM)99% (Oct 11, 8:00 AM)30.10 "Hg (Oct 11, 8:00 AM)
Low44 °F (Oct 21, 11:00 PM)54% (Oct 14, 3:00 PM)29.50 "Hg (Oct 7, 10:00 AM)
Average58 °F82%29.83 "Hg
* Reported Oct 7 1:00 AM — Oct 22 1:00 AM, Gladbeck, Weather by CustomWeather, © 2014

Note: Actual official high and low records may vary slightly from our data, if they occured in-between our weather recording intervals... More about our weather records

Advertising

Gladbeck weather history for previous 24 hours

 ConditionsComfort  
Time TempWeatherWind HumidityBarometerVisibility
1:00 AM
Oct 22
46 °FSprinkles. Overcast.7 mph87%29.85 "Hg22 mi
12:00 AM45 °FSprinkles. Overcast.7 mph89%29.81 "Hg17 mi
11:00 PM
Oct 21
44 °FLight rain. Overcast.7 mph90%29.78 "Hg5 mi
10:00 PM47 °FPassing clouds.7 mph83%29.72 "Hg22 mi
9:00 PM48 °FPassing clouds.8 mph81%29.68 "Hg25 mi
8:00 PM49 °FPassing clouds.8 mph78%29.66 "Hg19 mi
7:00 PM49 °FSprinkles. Overcast.13 mph83%29.62 "Hg9 mi
6:00 PM52 °FSprinkles. Overcast.10 mph81%29.58 "Hg9 mi
4:00 PM56 °FLow clouds.10 mph84%29.50 "Hg12 mi
3:00 PM56 °FLow clouds.10 mph82%29.54 "Hg16 mi
2:00 PM54 °FLow clouds.9 mph89%29.60 "Hg12 mi
1:00 PM54 °FSprinkles. Overcast.10 mph86%29.65 "Hg6 mi
12:00 PM56 °FOvercast.8 mph76%29.69 "Hg16 mi
10:00 AM55 °FOvercast.8 mph77%29.76 "Hg12 mi
9:00 AM54 °FPartly sunny.7 mph81%29.79 "Hg16 mi
8:00 AM54 °FOvercast.6 mph83%29.80 "Hg12 mi
7:00 AM54 °FOvercast.6 mph87%29.83 "Hg12 mi
6:00 AM53 °FOvercast.5 mph89%29.84 "Hg16 mi
4:00 AM52 °FPassing clouds.6 mph90%29.90 "Hg19 mi
3:00 AM52 °FPassing clouds.6 mph91%29.92 "Hg19 mi
2:00 AM52 °FClear.6 mph92%29.93 "Hg22 mi
Weather by CustomWeather, © 2014

See weather overviewHow to use our weather pages